Time,TemperatureF,DewpointF,PressureIn,WindDirection,WindDirectionDegrees,WindSpeedMPH,WindSpeedGustMPH,Humidity,HourlyPrecipIn,Conditions,Clouds,dailyrainin,SoftwareType,DateUTC
2013-12-02 00:01:00,38.3,31.1,29.93,South,169,4.0,7.0,75,0.00,,,0.01,meteohub,2013-12-02 05:01:00,
2013-12-02 00:02:00,38.3,31.1,29.93,South,171,5.0,7.0,75,0.00,,,0.01,meteohub,2013-12-02 05:02:00,
2013-12-02 00:07:00,38.5,31.3,29.93,South,180,2.0,9.0,75,0.00,,,0.00,meteohub,2013-12-02 05:07:00,
2013-12-02 00:12:00,38.5,31.3,29.93,SSE,149,0.0,9.0,75,0.00,,,0.00,meteohub,2013-12-02 05:12:00,
2013-12-02 00:17:00,38.5,31.3,29.93,SSW,208,1.0,9.0,75,0.00,,,0.00,meteohub,2013-12-02 05:17:00,
2013-12-02 00:22:00,38.5,31.3,29.93,SSW,203,2.0,8.0,75,0.00,,,0.00,meteohub,2013-12-02 05:22:00,
2013-12-02 00:27:00,38.3,31.5,29.93,SSW,200,0.0,7.0,76,0.00,,,0.00,meteohub,2013-12-02 05:27:00,
2013-12-02 00:32:00,38.1,31.3,29.92,South,188,1.0,6.0,76,0.00,,,0.00,meteohub,2013-12-02 05:32:00,
2013-12-02 00:37:00,38.1,31.3,29.92,SSW,193,0.0,4.0,76,0.00,,,0.00,meteohub,2013-12-02 05:37:00,
2013-12-02 00:42:00,38.1,31.3,29.92,SSW,192,0.0,4.0,76,0.00,,,0.00,meteohub,2013-12-02 05:42:00,
2013-12-02 00:47:00,37.9,31.1,29.92,SSW,192,1.0,3.0,76,0.00,,,0.00,meteohub,2013-12-02 05:47:00,
2013-12-02 00:52:00,37.9,31.1,29.91,SSW,192,0.0,4.0,76,0.00,,,0.00,meteohub,2013-12-02 05:52:00,
2013-12-02 00:57:00,37.9,31.5,29.91,SSW,192,2.0,4.0,77,0.00,,,0.00,meteohub,2013-12-02 05:57:00,
2013-12-02 01:02:00,37.9,31.1,29.91,South,184,2.0,5.0,76,0.00,,,0.00,meteohub,2013-12-02 06:02:00,
2013-12-02 01:07:00,37.9,31.1,29.91,South,178,0.0,6.0,76,0.00,,,0.00,meteohub,2013-12-02 06:07:00,
2013-12-02 01:12:00,37.9,31.1,29.91,SW,219,2.0,6.0,76,0.00,,,0.00,meteohub,2013-12-02 06:12:00,
2013-12-02 01:17:00,37.9,31.5,29.91,SSW,208,0.0,6.0,77,0.00,,,0.00,meteohub,2013-12-02 06:17:00,
2013-12-02 01:23:00,37.9,31.5,29.91,SSW,198,2.0,5.0,77,0.00,,,0.00,meteohub,2013-12-02 06:23:00,
2013-12-02 01:28:00,37.9,31.5,29.91,SW,216,1.0,5.0,77,0.00,,,0.00,meteohub,2013-12-02 06:28:00,
2013-12-02 01:33:00,37.9,31.5,29.91,South,179,0.0,6.0,77,0.00,,,0.00,meteohub,2013-12-02 06:33:00,
2013-12-02 01:38:00,38.1,31.3,29.91,SSW,210,0.0,6.0,76,0.00,,,0.00,meteohub,2013-12-02 06:38:00,
2013-12-02 01:43:00,38.1,31.6,29.91,SSW,211,2.0,6.0,77,0.00,,,0.00,meteohub,2013-12-02 06:43:00,
2013-12-02 01:48:00,38.1,31.3,29.91,SSW,202,3.0,5.0,76,0.00,,,0.00,meteohub,2013-12-02 06:48:00,
2013-12-02 01:53:00,38.1,31.3,29.91,SSW,192,0.0,4.0,76,0.00,,,0.00,meteohub,2013-12-02 06:53:00,
2013-12-02 01:58:00,38.1,31.3,29.91,SSW,192,0.0,5.0,76,0.00,,,0.00,meteohub,2013-12-02 06:58:00,
2013-12-02 02:03:00,38.1,31.3,29.91,SSW,193,1.0,5.0,76,0.00,,,0.00,meteohub,2013-12-02 07:03:00,
2013-12-02 02:08:00,38.1,31.3,29.91,SSW,202,3.0,5.0,76,0.00,,,0.00,meteohub,2013-12-02 07:08:00,
2013-12-02 02:13:00,38.1,31.3,29.91,SSW,201,4.0,5.0,76,0.00,,,0.00,meteohub,2013-12-02 07:13:00,
2013-12-02 02:18:00,38.1,31.3,29.91,SSW,198,0.0,5.0,76,0.00,,,0.00,meteohub,2013-12-02 07:18:00,
2013-12-02 02:23:00,38.1,31.3,29.91,SSW,194,3.0,5.0,76,0.00,,,0.00,meteohub,2013-12-02 07:23:00,
2013-12-02 02:28:00,38.1,31.3,29.91,SSW,205,1.0,5.0,76,0.00,,,0.00,meteohub,2013-12-02 07:28:00,
2013-12-02 02:33:00,38.1,31.6,29.91,South,190,1.0,5.0,77,0.00,,,0.00,meteohub,2013-12-02 07:33:00,
2013-12-02 02:38:00,38.1,31.6,29.91,SW,220,3.0,5.0,77,0.00,,,0.00,meteohub,2013-12-02 07:38:00,
2013-12-02 02:43:00,38.1,31.6,29.91,SSW,207,2.0,5.0,77,0.00,,,0.00,meteohub,2013-12-02 07:43:00,
2013-12-02 02:48:00,38.1,31.6,29.91,SSW,206,2.0,5.0,77,0.00,,,0.00,meteohub,2013-12-02 07:48:00,
2013-12-02 02:54:00,38.1,31.6,29.91,SW,221,1.0,5.0,77,0.00,,,0.00,meteohub,2013-12-02 07:54:00,
2013-12-02 02:59:00,38.1,31.6,29.90,SSW,213,2.0,8.0,77,0.00,,,0.00,meteohub,2013-12-02 07:59:00,
2013-12-02 03:04:00,38.1,31.6,29.91,SW,219,3.0,8.0,77,0.00,,,0.00,meteohub,2013-12-02 08:04:00,
2013-12-02 03:09:00,38.3,31.6,29.90,SSW,209,3.0,8.0,77,0.00,,,0.00,meteohub,2013-12-02 08:09:00,
2013-12-02 03:14:00,38.3,31.6,29.91,SSW,209,3.0,7.0,77,0.00,,,0.00,meteohub,2013-12-02 08:14:00,
2013-12-02 03:19:00,38.3,31.6,29.90,SW,223,3.0,7.0,77,0.00,,,0.00,meteohub,2013-12-02 08:19:00,
2013-12-02 03:24:00,38.3,31.6,29.90,SW,223,3.0,6.0,77,0.00,,,0.00,meteohub,2013-12-02 08:24:00,
2013-12-02 03:29:00,38.5,32.2,29.90,SSW,206,3.0,7.0,78,0.00,,,0.00,meteohub,2013-12-02 08:29:00,
2013-12-02 03:34:00,38.3,32.0,29.90,SSW,205,3.0,7.0,78,0.00,,,0.00,meteohub,2013-12-02 08:34:00,
2013-12-02 03:39:00,38.3,32.0,29.90,SW,222,4.0,7.0,78,0.00,,,0.00,meteohub,2013-12-02 08:39:00,
2013-12-02 03:44:00,38.1,31.8,29.89,SSW,209,2.0,6.0,78,0.00,,,0.00,meteohub,2013-12-02 08:44:00,
2013-12-02 03:49:00,38.1,32.2,29.90,SSW,213,0.0,6.0,79,0.00,,,0.00,meteohub,2013-12-02 08:49:00,
2013-12-02 03:54:00,38.1,32.2,29.89,SSW,207,4.0,6.0,79,0.00,,,0.00,meteohub,2013-12-02 08:54:00,
2013-12-02 03:59:00,38.1,32.2,29.89,SW,216,3.0,6.0,79,0.00,,,0.00,meteohub,2013-12-02 08:59:00,
2013-12-02 04:04:00,37.9,32.4,29.89,SW,219,2.0,5.0,80,0.00,,,0.00,meteohub,2013-12-02 09:04:00,
2013-12-02 04:09:00,37.9,32.4,29.89,SW,219,0.0,5.0,80,0.00,,,0.00,meteohub,2013-12-02 09:09:00,
2013-12-02 04:14:00,37.9,32.4,29.89,SW,219,0.0,5.0,80,0.00,,,0.00,meteohub,2013-12-02 09:14:00,
2013-12-02 04:19:00,37.9,32.7,29.89,SW,219,1.0,5.0,81,0.00,,,0.00,meteohub,2013-12-02 09:19:00,
2013-12-02 04:24:00,37.9,32.7,29.89,SW,219,0.0,3.0,81,0.00,,,0.00,meteohub,2013-12-02 09:24:00,
2013-12-02 04:29:00,37.8,32.7,29.89,SW,219,0.0,2.0,82,0.00,,,0.00,meteohub,2013-12-02 09:29:00,
2013-12-02 04:35:00,37.8,32.7,29.89,SW,219,2.0,3.0,82,0.00,,,0.00,meteohub,2013-12-02 09:35:00,
2013-12-02 04:40:00,37.8,32.7,29.89,SW,219,0.0,3.0,82,0.00,,,0.00,meteohub,2013-12-02 09:40:00,
2013-12-02 04:45:00,37.8,32.7,29.89,SW,219,0.0,3.0,82,0.00,,,0.00,meteohub,2013-12-02 09:45:00,
2013-12-02 04:50:00,37.8,32.7,29.89,SW,219,0.0,2.0,82,0.00,,,0.00,meteohub,2013-12-02 09:50:00,
2013-12-02 04:55:00,37.8,33.1,29.89,SW,219,0.0,2.0,83,0.00,,,0.00,meteohub,2013-12-02 09:55:00,
2013-12-02 05:00:00,37.8,33.6,29.89,SW,219,2.0,2.0,85,0.00,,,0.00,meteohub,2013-12-02 10:00:00,
2013-12-02 05:05:00,37.8,33.6,29.89,SW,219,1.0,4.0,85,0.00,,,0.00,meteohub,2013-12-02 10:05:00,
2013-12-02 05:10:00,37.8,34.0,29.89,WSW,248,0.0,4.0,86,0.00,,,0.00,meteohub,2013-12-02 10:10:00,
2013-12-02 05:15:00,37.6,33.8,29.89,WSW,249,3.0,5.0,86,0.00,,,0.00,meteohub,2013-12-02 10:15:00,
2013-12-02 05:20:00,37.4,33.6,29.89,West,270,2.0,5.0,86,0.00,,,0.00,meteohub,2013-12-02 10:20:00,
2013-12-02 05:25:00,37.2,33.4,29.89,West,270,2.0,6.0,86,0.00,,,0.00,meteohub,2013-12-02 10:25:00,
2013-12-02 05:30:00,37.0,33.3,29.89,West,270,1.0,6.0,86,0.00,,,0.00,meteohub,2013-12-02 10:30:00,
2013-12-02 05:35:00,36.9,33.4,29.89,West,270,2.0,6.0,87,0.00,,,0.00,meteohub,2013-12-02 10:35:00,
2013-12-02 05:40:00,36.7,33.3,29.89,West,270,0.0,6.0,87,0.00,,,0.00,meteohub,2013-12-02 10:40:00,
2013-12-02 05:45:00,36.7,33.4,29.89,West,267,3.0,5.0,88,0.00,,,0.00,meteohub,2013-12-02 10:45:00,
2013-12-02 05:50:00,36.7,33.4,29.89,West,267,0.0,5.0,88,0.00,,,0.00,meteohub,2013-12-02 10:50:00,
2013-12-02 05:55:00,36.5,33.3,29.89,West,265,2.0,5.0,88,0.00,,,0.00,meteohub,2013-12-02 10:55:00,
2013-12-02 06:00:00,36.5,33.3,29.89,West,265,0.0,5.0,88,0.00,,,0.00,meteohub,2013-12-02 11:00:00,
2013-12-02 06:05:00,36.3,33.4,29.90,West,265,0.0,4.0,89,0.00,,,0.00,meteohub,2013-12-02 11:05:00,
2013-12-02 06:10:00,36.3,33.4,29.89,West,265,0.0,3.0,89,0.00,,,0.00,meteohub,2013-12-02 11:10:00,
2013-12-02 06:15:00,36.3,33.4,29.89,West,265,0.0,3.0,89,0.00,,,0.00,meteohub,2013-12-02 11:15:00,
2013-12-02 06:20:00,36.3,33.4,29.89,West,265,0.0,3.0,89,0.00,,,0.00,meteohub,2013-12-02 11:20:00,
2013-12-02 06:26:00,36.5,33.6,29.89,West,265,1.0,3.0,89,0.00,,,0.00,meteohub,2013-12-02 11:26:00,
2013-12-02 06:31:00,36.5,33.6,29.89,West,265,0.0,2.0,89,0.00,,,0.00,meteohub,2013-12-02 11:31:00,
2013-12-02 06:36:00,36.5,33.6,29.89,West,265,0.0,3.0,89,0.00,,,0.00,meteohub,2013-12-02 11:36:00,
2013-12-02 06:41:00,36.7,33.8,29.89,West,265,0.0,3.0,89,0.00,,,0.00,meteohub,2013-12-02 11:41:00,
2013-12-02 06:46:00,36.7,33.8,29.89,West,265,1.0,3.0,89,0.00,,,0.00,meteohub,2013-12-02 11:46:00,
2013-12-02 06:51:00,36.9,34.0,29.89,West,265,0.0,4.0,89,0.00,,,0.00,meteohub,2013-12-02 11:51:00,
2013-12-02 06:56:00,36.9,34.0,29.89,West,265,0.0,4.0,89,0.00,,,0.00,meteohub,2013-12-02 11:56:00,
2013-12-02 07:01:00,36.9,34.0,29.89,West,265,0.0,4.0,89,0.00,,,0.00,meteohub,2013-12-02 12:01:00,
2013-12-02 07:06:00,36.9,34.0,29.89,West,265,0.0,4.0,89,0.00,,,0.00,meteohub,2013-12-02 12:06:00,
2013-12-02 07:12:00,36.9,34.0,29.89,West,265,0.0,3.0,89,0.00,,,0.00,meteohub,2013-12-02 12:12:00,
2013-12-02 07:17:00,36.9,34.0,29.88,West,265,0.0,2.0,89,0.00,,,0.00,meteohub,2013-12-02 12:17:00,
2013-12-02 07:22:00,36.7,33.8,29.88,West,265,0.0,0.0,89,0.00,,,0.00,meteohub,2013-12-02 12:22:00,
2013-12-02 07:27:00,36.7,33.8,29.88,West,265,0.0,0.0,89,0.00,,,0.00,meteohub,2013-12-02 12:27:00,
2013-12-02 07:32:00,36.7,33.8,29.88,West,265,0.0,0.0,89,0.00,,,0.00,meteohub,2013-12-02 12:32:00,
2013-12-02 07:37:00,36.7,33.8,29.88,West,265,0.0,0.0,89,0.00,,,0.00,meteohub,2013-12-02 12:37:00,
2013-12-02 07:42:00,36.7,33.8,29.88,West,265,0.0,0.0,89,0.00,,,0.00,meteohub,2013-12-02 12:42:00,
2013-12-02 07:47:00,36.7,33.8,29.88,West,265,0.0,0.0,89,0.00,,,0.00,meteohub,2013-12-02 12:47:00,
2013-12-02 07:52:00,36.7,33.8,29.88,West,265,0.0,0.0,89,0.00,,,0.00,meteohub,2013-12-02 12:52:00,
2013-12-02 07:57:00,36.7,34.0,29.88,West,265,0.0,0.0,90,0.00,,,0.00,meteohub,2013-12-02 12:57:00,
2013-12-02 08:02:00,36.7,34.0,29.88,West,265,0.0,0.0,90,0.00,,,0.00,meteohub,2013-12-02 13:02:00,
2013-12-02 08:07:00,36.7,34.0,29.89,West,265,0.0,0.0,90,0.00,,,0.00,meteohub,2013-12-02 13:07:00,
2013-12-02 08:12:00,36.7,34.0,29.89,West,265,0.0,1.0,90,0.00,,,0.00,meteohub,2013-12-02 13:12:00,
2013-12-02 08:17:00,36.7,34.0,29.89,West,265,0.0,1.0,90,0.00,,,0.00,meteohub,2013-12-02 13:17:00,
2013-12-02 08:22:00,36.7,34.0,29.89,West,265,0.0,3.0,90,0.00,,,0.00,meteohub,2013-12-02 13:22:00,
2013-12-02 08:27:00,36.9,34.2,29.89,West,265,0.0,3.0,90,0.00,,,0.00,meteohub,2013-12-02 13:27:00,
2013-12-02 08:32:00,36.9,34.2,29.89,West,265,0.0,3.0,90,0.00,,,0.00,meteohub,2013-12-02 13:32:00,
2013-12-02 08:37:00,36.9,34.2,29.89,West,265,0.0,2.0,90,0.00,,,0.00,meteohub,2013-12-02 13:37:00,
2013-12-02 08:42:00,37.0,34.3,29.88,West,265,0.0,1.0,90,0.00,,,0.00,meteohub,2013-12-02 13:42:00,
2013-12-02 08:47:00,37.0,34.3,29.89,West,265,1.0,3.0,90,0.00,,,0.00,meteohub,2013-12-02 13:47:00,
2013-12-02 08:52:00,37.0,34.3,29.89,West,265,3.0,3.0,90,0.00,,,0.00,meteohub,2013-12-02 13:52:00,
2013-12-02 08:57:00,37.2,34.5,29.89,West,265,1.0,4.0,90,0.00,,,0.00,meteohub,2013-12-02 13:57:00,
2013-12-02 09:02:00,37.2,34.5,29.88,West,265,0.0,4.0,90,0.00,,,0.00,meteohub,2013-12-02 14:02:00,
2013-12-02 09:07:00,37.2,34.5,29.88,West,265,0.0,4.0,90,0.00,,,0.00,meteohub,2013-12-02 14:07:00,
2013-12-02 09:12:00,37.4,34.7,29.89,West,265,1.0,4.0,90,0.00,,,0.00,meteohub,2013-12-02 14:12:00,
2013-12-02 09:17:00,37.6,34.9,29.88,West,265,2.0,3.0,90,0.00,,,0.00,meteohub,2013-12-02 14:17:00,
2013-12-02 09:22:00,37.6,34.9,29.88,West,265,1.0,3.0,90,0.00,,,0.00,meteohub,2013-12-02 14:22:00,
2013-12-02 09:27:00,37.6,34.9,29.88,West,265,0.0,4.0,90,0.00,,,0.00,meteohub,2013-12-02 14:27:00,
2013-12-02 09:32:00,37.6,34.7,29.89,West,265,2.0,4.0,89,0.00,,,0.00,meteohub,2013-12-02 14:32:00,
2013-12-02 09:37:00,37.8,34.9,29.89,West,265,4.0,4.0,89,0.00,,,0.00,meteohub,2013-12-02 14:37:00,
2013-12-02 09:42:00,37.8,34.9,29.88,West,265,0.0,4.0,89,0.00,,,0.00,meteohub,2013-12-02 14:42:00,
2013-12-02 09:47:00,37.8,34.9,29.89,West,265,0.0,4.0,89,0.00,,,0.00,meteohub,2013-12-02 14:47:00,
2013-12-02 09:52:00,37.9,34.7,29.88,West,265,0.0,4.0,88,0.00,,,0.00,meteohub,2013-12-02 14:52:00,
2013-12-02 09:57:00,37.9,34.7,29.88,West,265,0.0,1.0,88,0.00,,,0.00,meteohub,2013-12-02 14:57:00,
2013-12-02 10:02:00,37.9,34.7,29.89,West,265,1.0,2.0,88,0.00,,,0.00,meteohub,2013-12-02 15:02:00,
2013-12-02 10:08:00,37.9,34.3,29.89,West,265,0.0,2.0,87,0.00,,,0.00,meteohub,2013-12-02 15:08:00,
2013-12-02 10:16:00,37.9,34.3,29.89,West,265,0.0,3.0,87,0.00,,,0.00,meteohub,2013-12-02 15:16:00,
2013-12-02 10:21:00,38.1,36.0,29.89,West,265,0.0,3.0,92,0.00,,,0.00,meteohub,2013-12-02 15:21:00,
2013-12-02 10:26:00,38.1,34.3,29.89,West,265,0.0,3.0,86,0.00,,,0.00,meteohub,2013-12-02 15:26:00,
2013-12-02 10:31:00,38.1,34.3,29.89,West,265,0.0,2.0,86,0.00,,,0.00,meteohub,2013-12-02 15:31:00,
2013-12-02 10:36:00,38.1,34.3,29.89,West,265,0.0,2.0,86,0.00,,,0.00,meteohub,2013-12-02 15:36:00,
2013-12-02 10:41:00,38.1,34.0,29.89,West,265,0.0,2.0,85,0.00,,,0.00,meteohub,2013-12-02 15:41:00,
2013-12-02 10:46:00,38.3,34.2,29.89,West,265,0.0,2.0,85,0.00,,,0.00,meteohub,2013-12-02 15:46:00,
2013-12-02 10:51:00,38.3,34.5,29.89,West,265,0.0,2.0,86,0.00,,,0.00,meteohub,2013-12-02 15:51:00,
2013-12-02 10:56:00,38.5,34.9,29.88,West,265,0.0,1.0,87,0.00,,,0.00,meteohub,2013-12-02 15:56:00,
2013-12-02 11:01:00,38.5,34.7,29.88,West,265,0.0,1.0,86,0.00,,,0.00,meteohub,2013-12-02 16:01:00,
2013-12-02 11:06:00,38.3,34.5,29.88,West,265,0.0,4.0,86,0.00,,,0.00,meteohub,2013-12-02 16:06:00,
2013-12-02 11:11:00,38.1,34.3,29.88,WNW,289,0.0,7.0,86,0.00,,,0.00,meteohub,2013-12-02 16:11:00,
2013-12-02 11:16:00,37.9,34.2,29.88,WNW,289,0.0,7.0,86,0.00,,,0.00,meteohub,2013-12-02 16:16:00,
2013-12-02 11:21:00,37.9,34.3,29.88,WNW,289,0.0,7.0,87,0.00,,,0.00,meteohub,2013-12-02 16:21:00,
2013-12-02 11:26:00,38.1,34.5,29.88,WNW,289,0.0,6.0,87,0.00,,,0.00,meteohub,2013-12-02 16:26:00,
2013-12-02 11:32:00,38.1,34.9,29.87,WNW,289,1.0,4.0,88,0.00,,,0.00,meteohub,2013-12-02 16:32:00,
2013-12-02 11:37:00,38.1,34.3,29.87,WNW,289,0.0,4.0,86,0.00,,,0.00,meteohub,2013-12-02 16:37:00,
2013-12-02 11:42:00,37.9,34.3,29.87,WNW,289,0.0,4.0,87,0.00,,,0.00,meteohub,2013-12-02 16:42:00,
2013-12-02 11:47:00,37.9,34.3,29.87,WNW,289,1.0,4.0,87,0.00,,,0.00,meteohub,2013-12-02 16:47:00,
2013-12-02 11:52:00,37.8,34.2,29.87,WNW,289,0.0,2.0,87,0.00,,,0.00,meteohub,2013-12-02 16:52:00,
2013-12-02 11:57:00,37.8,34.2,29.87,WNW,289,0.0,4.0,87,0.00,,,0.00,meteohub,2013-12-02 16:57:00,
2013-12-02 12:02:00,37.8,34.2,29.87,WNW,289,2.0,4.0,87,0.00,,,0.00,meteohub,2013-12-02 17:02:00,
2013-12-02 12:07:00,37.8,34.5,29.87,WNW,289,0.0,5.0,88,0.00,,,0.00,meteohub,2013-12-02 17:07:00,
2013-12-02 12:12:00,37.9,34.7,29.87,WNW,289,0.0,5.0,88,0.00,,,0.00,meteohub,2013-12-02 17:12:00,
2013-12-02 12:17:00,37.9,34.3,29.87,WNW,289,1.0,4.0,87,0.00,,,0.00,meteohub,2013-12-02 17:17:00,
2013-12-02 12:22:00,37.9,34.7,29.87,WNW,289,0.0,4.0,88,0.00,,,0.00,meteohub,2013-12-02 17:22:00,
2013-12-02 12:27:00,37.8,34.5,29.87,WNW,290,4.0,6.0,88,0.00,,,0.00,meteohub,2013-12-02 17:27:00,
2013-12-02 12:32:00,37.8,34.5,29.86,WNW,290,0.0,6.0,88,0.00,,,0.00,meteohub,2013-12-02 17:32:00,
2013-12-02 12:37:00,37.8,34.5,29.86,WNW,290,1.0,6.0,88,0.00,,,0.00,meteohub,2013-12-02 17:37:00,
2013-12-02 12:42:00,37.8,34.5,29.86,WNW,289,6.0,6.0,88,0.00,,,0.00,meteohub,2013-12-02 17:42:00,
2013-12-02 12:47:00,37.8,34.5,29.86,WNW,289,0.0,6.0,88,0.00,,,0.00,meteohub,2013-12-02 17:47:00,
2013-12-02 12:52:00,37.9,34.7,29.86,WNW,289,1.0,6.0,88,0.00,,,0.00,meteohub,2013-12-02 17:52:00,
2013-12-02 12:57:00,37.9,34.3,29.85,WNW,289,0.0,6.0,87,0.00,,,0.00,meteohub,2013-12-02 17:57:00,
2013-12-02 13:02:00,37.8,34.0,29.85,WNW,289,2.0,8.0,86,0.00,,,0.00,meteohub,2013-12-02 18:02:00,
2013-12-02 13:07:00,37.8,34.2,29.86,WNW,289,2.0,8.0,87,0.00,,,0.00,meteohub,2013-12-02 18:07:00,
2013-12-02 13:12:00,37.9,34.2,29.86,WNW,289,5.0,8.0,86,0.00,,,0.00,meteohub,2013-12-02 18:12:00,
2013-12-02 13:17:00,37.8,34.0,29.86,WNW,289,1.0,8.0,86,0.00,,,0.00,meteohub,2013-12-02 18:17:00,
2013-12-02 13:22:00,37.8,34.0,29.86,WNW,284,2.0,7.0,86,0.00,,,0.00,meteohub,2013-12-02 18:22:00,
2013-12-02 13:27:00,37.8,34.0,29.86,WNW,283,4.0,7.0,86,0.00,,,0.00,meteohub,2013-12-02 18:27:00,
2013-12-02 13:32:00,37.6,33.8,29.86,WNW,283,0.0,7.0,86,0.00,,,0.00,meteohub,2013-12-02 18:32:00,
2013-12-02 13:37:00,37.6,33.8,29.85,West,269,7.0,7.0,86,0.00,,,0.00,meteohub,2013-12-02 18:37:00,
2013-12-02 13:42:00,37.6,34.0,29.85,West,270,5.0,8.0,87,0.00,,,0.00,meteohub,2013-12-02 18:42:00,
2013-12-02 13:47:00,37.6,33.8,29.86,West,271,1.0,8.0,86,0.00,,,0.00,meteohub,2013-12-02 18:47:00,
2013-12-02 13:52:00,37.6,33.4,29.85,West,277,5.0,8.0,85,0.00,,,0.00,meteohub,2013-12-02 18:52:00,
2013-12-02 13:57:00,37.6,33.8,29.85,West,268,5.0,6.0,86,0.00,,,0.00,meteohub,2013-12-02 18:57:00,
2013-12-02 14:02:00,37.4,33.3,29.85,WNW,284,1.0,8.0,85,0.00,,,0.00,meteohub,2013-12-02 19:02:00,
2013-12-02 14:07:00,37.4,33.6,29.85,WNW,284,4.0,8.0,86,0.00,,,0.00,meteohub,2013-12-02 19:07:00,
2013-12-02 14:12:00,37.4,33.3,29.85,WNW,284,4.0,8.0,85,0.00,,,0.00,meteohub,2013-12-02 19:12:00,
2013-12-02 14:17:00,37.2,33.1,29.85,WNW,284,4.0,6.0,85,0.00,,,0.00,meteohub,2013-12-02 19:17:00,
2013-12-02 14:22:00,37.2,33.1,29.85,WNW,284,0.0,6.0,85,0.00,,,0.00,meteohub,2013-12-02 19:22:00,
2013-12-02 14:27:00,37.2,33.4,29.85,WNW,284,4.0,6.0,86,0.00,,,0.00,meteohub,2013-12-02 19:27:00,
2013-12-02 14:32:00,37.2,33.4,29.85,West,263,4.0,8.0,86,0.00,,,0.00,meteohub,2013-12-02 19:32:00,
2013-12-02 14:37:00,37.0,33.3,29.85,WNW,288,1.0,8.0,86,0.00,,,0.00,meteohub,2013-12-02 19:37:00,
2013-12-02 14:42:00,37.0,33.3,29.85,WNW,291,2.0,8.0,86,0.00,,,0.00,meteohub,2013-12-02 19:42:00,
2013-12-02 14:47:00,37.2,33.4,29.85,WNW,291,0.0,7.0,86,0.00,,,0.00,meteohub,2013-12-02 19:47:00,
2013-12-02 14:52:00,37.2,33.4,29.85,WNW,291,4.0,7.0,86,0.00,,,0.00,meteohub,2013-12-02 19:52:00,
2013-12-02 14:57:00,37.2,33.4,29.85,WNW,291,5.0,7.0,86,0.00,,,0.00,meteohub,2013-12-02 19:57:00,
2013-12-02 15:02:00,37.0,33.3,29.85,WNW,291,1.0,7.0,86,0.00,,,0.00,meteohub,2013-12-02 20:02:00,
2013-12-02 15:07:00,37.0,33.3,29.86,WNW,291,2.0,7.0,86,0.00,,,0.00,meteohub,2013-12-02 20:07:00,
2013-12-02 15:12:00,37.0,33.3,29.86,WNW,291,4.0,6.0,86,0.00,,,0.00,meteohub,2013-12-02 20:12:00,
2013-12-02 15:18:00,37.0,32.9,29.86,WNW,291,1.0,5.0,85,0.00,,,0.00,meteohub,2013-12-02 20:18:00,
2013-12-02 15:23:00,36.9,32.7,29.86,WNW,291,5.0,7.0,85,0.00,,,0.00,meteohub,2013-12-02 20:23:00,
2013-12-02 15:28:00,36.9,32.7,29.86,WNW,291,0.0,7.0,85,0.00,,,0.00,meteohub,2013-12-02 20:28:00,
2013-12-02 15:33:00,37.0,32.9,29.86,WNW,291,2.0,7.0,85,0.00,,,0.00,meteohub,2013-12-02 20:33:00,
2013-12-02 15:38:00,36.9,33.1,29.86,WNW,291,5.0,7.0,86,0.00,,,0.00,meteohub,2013-12-02 20:38:00,
2013-12-02 15:43:00,36.9,33.1,29.86,WNW,291,5.0,7.0,86,0.00,,,0.00,meteohub,2013-12-02 20:43:00,
2013-12-02 15:48:00,36.9,33.1,29.87,WNW,291,4.0,7.0,86,0.00,,,0.00,meteohub,2013-12-02 20:48:00,
2013-12-02 15:53:00,36.9,33.1,29.87,WNW,291,4.0,7.0,86,0.00,,,0.00,meteohub,2013-12-02 20:53:00,
2013-12-02 15:58:00,36.7,33.3,29.86,WNW,283,2.0,7.0,87,0.00,,,0.00,meteohub,2013-12-02 20:58:00,
2013-12-02 16:03:00,36.7,32.9,29.86,West,278,2.0,7.0,86,0.00,,,0.00,meteohub,2013-12-02 21:03:00,
2013-12-02 16:08:00,36.5,33.1,29.86,West,278,2.0,7.0,87,0.00,,,0.00,meteohub,2013-12-02 21:08:00,
2013-12-02 16:13:00,36.5,33.1,29.87,West,278,0.0,7.0,87,0.00,,,0.00,meteohub,2013-12-02 21:13:00,
2013-12-02 16:18:00,36.3,32.5,29.86,West,278,4.0,7.0,86,0.00,,,0.00,meteohub,2013-12-02 21:18:00,
2013-12-02 16:23:00,36.3,32.5,29.86,West,278,0.0,6.0,86,0.00,,,0.00,meteohub,2013-12-02 21:23:00,
2013-12-02 16:28:00,36.3,32.5,29.86,West,278,2.0,6.0,86,0.00,,,0.00,meteohub,2013-12-02 21:28:00,
2013-12-02 16:33:00,36.1,32.7,29.87,West,278,4.0,6.0,87,0.00,,,0.00,meteohub,2013-12-02 21:33:00,
2013-12-02 16:38:00,36.1,32.7,29.87,West,278,2.0,6.0,87,0.00,,,0.00,meteohub,2013-12-02 21:38:00,
2013-12-02 16:43:00,36.1,32.7,29.87,West,278,2.0,6.0,87,0.00,,,0.00,meteohub,2013-12-02 21:43:00,
2013-12-02 16:48:00,36.1,32.7,29.87,West,278,0.0,6.0,87,0.00,,,0.00,meteohub,2013-12-02 21:48:00,
2013-12-02 16:54:00,36.1,32.7,29.87,West,278,0.0,6.0,87,0.00,,,0.00,meteohub,2013-12-02 21:54:00,
2013-12-02 16:59:00,36.1,32.7,29.87,West,278,0.0,6.0,87,0.00,,,0.00,meteohub,2013-12-02 21:59:00,
2013-12-02 17:04:00,36.0,32.5,29.87,West,278,1.0,6.0,87,0.00,,,0.00,meteohub,2013-12-02 22:04:00,
2013-12-02 17:09:00,36.0,32.5,29.87,West,278,0.0,6.0,87,0.00,,,0.00,meteohub,2013-12-02 22:09:00,
2013-12-02 17:14:00,36.0,32.5,29.88,West,278,2.0,6.0,87,0.00,,,0.00,meteohub,2013-12-02 22:14:00,
2013-12-02 17:19:00,36.0,32.5,29.88,West,278,2.0,6.0,87,0.00,,,0.00,meteohub,2013-12-02 22:19:00,
2013-12-02 17:24:00,36.0,32.5,29.88,West,278,4.0,5.0,87,0.00,,,0.00,meteohub,2013-12-02 22:24:00,
2013-12-02 17:29:00,35.8,32.4,29.88,West,278,4.0,5.0,87,0.00,,,0.00,meteohub,2013-12-02 22:29:00,
2013-12-02 17:34:00,35.8,32.4,29.88,West,278,0.0,5.0,87,0.00,,,0.00,meteohub,2013-12-02 22:34:00,
2013-12-02 17:39:00,35.8,32.4,29.88,West,278,0.0,5.0,87,0.00,,,0.00,meteohub,2013-12-02 22:39:00,
2013-12-02 17:44:00,35.8,32.4,29.88,West,278,2.0,5.0,87,0.00,,,0.00,meteohub,2013-12-02 22:44:00,
2013-12-02 17:49:00,35.6,32.2,29.88,West,279,2.0,7.0,87,0.00,,,0.00,meteohub,2013-12-02 22:49:00,
2013-12-02 17:54:00,35.6,32.2,29.88,West,279,4.0,7.0,87,0.00,,,0.00,meteohub,2013-12-02 22:54:00,
2013-12-02 17:59:00,35.6,32.2,29.88,West,279,0.0,7.0,87,0.00,,,0.00,meteohub,2013-12-02 22:59:00,
2013-12-02 18:04:00,35.6,32.2,29.88,West,279,1.0,6.0,87,0.00,,,0.00,meteohub,2013-12-02 23:04:00,
2013-12-02 18:09:00,35.4,32.0,29.88,West,279,1.0,6.0,87,0.00,,,0.00,meteohub,2013-12-02 23:09:00,
2013-12-02 18:14:00,35.4,32.2,29.89,West,279,0.0,5.0,88,0.00,,,0.00,meteohub,2013-12-02 23:14:00,
2013-12-02 18:19:00,35.4,32.2,29.89,West,279,2.0,5.0,88,0.00,,,0.00,meteohub,2013-12-02 23:19:00,
2013-12-02 18:24:00,35.4,32.2,29.89,West,279,0.0,5.0,88,0.00,,,0.00,meteohub,2013-12-02 23:24:00,
2013-12-02 18:29:00,35.4,32.5,29.89,West,279,0.0,5.0,89,0.00,,,0.00,meteohub,2013-12-02 23:29:00,
2013-12-02 18:34:00,35.4,32.5,29.89,West,279,0.0,5.0,89,0.00,,,0.00,meteohub,2013-12-02 23:34:00,
2013-12-02 18:39:00,35.4,32.5,29.89,West,279,0.0,2.0,89,0.00,,,0.00,meteohub,2013-12-02 23:39:00,
2013-12-02 18:44:00,35.4,32.2,29.89,West,279,0.0,0.0,88,0.00,,,0.00,meteohub,2013-12-02 23:44:00,
2013-12-02 18:49:00,35.2,32.4,29.89,West,279,0.0,0.0,89,0.00,,,0.00,meteohub,2013-12-02 23:49:00,
2013-12-02 18:55:00,35.2,32.4,29.90,West,279,0.0,1.0,89,0.00,,,0.00,meteohub,2013-12-02 23:55:00,
2013-12-02 19:00:00,35.2,32.4,29.89,West,279,0.0,1.0,89,0.00,,,0.00,meteohub,2013-12-03 00:00:00,
2013-12-02 19:05:00,35.2,32.4,29.90,West,279,0.0,1.0,89,0.00,,,0.00,meteohub,2013-12-03 00:05:00,
2013-12-02 19:10:00,35.1,32.2,29.90,West,279,0.0,2.0,89,0.00,,,0.00,meteohub,2013-12-03 00:10:00,
2013-12-02 19:15:00,35.1,32.2,29.90,West,279,0.0,4.0,89,0.00,,,0.00,meteohub,2013-12-03 00:15:00,
2013-12-02 19:20:00,35.1,31.8,29.90,West,279,0.0,4.0,88,0.00,,,0.00,meteohub,2013-12-03 00:20:00,
2013-12-02 19:25:00,35.1,31.8,29.90,West,279,0.0,4.0,88,0.00,,,0.00,meteohub,2013-12-03 00:25:00,
2013-12-02 19:30:00,35.1,31.8,29.90,West,279,0.0,5.0,88,0.00,,,0.00,meteohub,2013-12-03 00:30:00,
2013-12-02 19:35:00,34.9,31.6,29.90,West,279,0.0,5.0,88,0.00,,,0.00,meteohub,2013-12-03 00:35:00,
2013-12-02 19:40:00,34.9,31.6,29.90,West,279,0.0,5.0,88,0.00,,,0.00,meteohub,2013-12-03 00:40:00,
2013-12-02 19:45:00,34.9,32.0,29.90,West,279,0.0,1.0,89,0.00,,,0.00,meteohub,2013-12-03 00:45:00,
2013-12-02 19:50:00,34.9,32.0,29.90,West,279,0.0,1.0,89,0.00,,,0.00,meteohub,2013-12-03 00:50:00,
2013-12-02 19:55:00,34.7,31.8,29.90,West,279,0.0,0.0,89,0.00,,,0.00,meteohub,2013-12-03 00:55:00,
2013-12-02 20:02:00,34.5,31.8,29.90,West,279,0.0,0.0,90,0.00,,,0.00,meteohub,2013-12-03 01:02:00,
2013-12-02 20:07:00,34.5,31.8,29.90,West,279,0.0,0.0,90,0.00,,,0.00,meteohub,2013-12-03 01:07:00,
2013-12-02 20:12:00,34.3,31.5,29.90,West,279,0.0,0.0,89,0.00,,,0.00,meteohub,2013-12-03 01:12:00,
2013-12-02 20:17:00,34.2,31.5,29.90,West,279,0.0,0.0,90,0.00,,,0.00,meteohub,2013-12-03 01:17:00,
2013-12-02 20:22:00,34.0,31.3,29.90,West,279,0.0,0.0,90,0.00,,,0.00,meteohub,2013-12-03 01:22:00,
2013-12-02 20:27:00,33.6,30.9,29.90,West,279,0.0,0.0,90,0.00,,,0.00,meteohub,2013-12-03 01:27:00,
2013-12-02 20:32:00,33.4,30.7,29.90,West,279,0.0,0.0,90,0.00,,,0.00,meteohub,2013-12-03 01:32:00,
2013-12-02 20:37:00,33.1,30.4,29.90,West,279,0.0,0.0,90,0.00,,,0.00,meteohub,2013-12-03 01:37:00,
2013-12-02 20:42:00,32.7,30.4,29.90,West,279,0.0,1.0,91,0.00,,,0.00,meteohub,2013-12-03 01:42:00,
2013-12-02 20:47:00,32.5,30.2,29.90,West,279,0.0,1.0,91,0.00,,,0.00,meteohub,2013-12-03 01:47:00,
2013-12-02 20:52:00,32.4,30.0,29.90,West,279,0.0,1.0,91,0.00,,,0.00,meteohub,2013-12-03 01:52:00,
2013-12-02 20:57:00,32.2,29.8,29.90,West,279,0.0,0.0,91,0.00,,,0.00,meteohub,2013-12-03 01:57:00,
2013-12-02 21:02:00,32.2,30.2,29.90,West,279,0.0,0.0,92,0.00,,,0.00,meteohub,2013-12-03 02:02:00,
2013-12-02 21:07:00,32.2,30.2,29.90,West,279,0.0,0.0,92,0.00,,,0.00,meteohub,2013-12-03 02:07:00,
2013-12-02 21:12:00,32.0,30.0,29.90,West,279,0.0,0.0,92,0.00,,,0.00,meteohub,2013-12-03 02:12:00,
2013-12-02 21:17:00,31.6,29.7,29.90,West,279,0.0,0.0,92,0.00,,,0.00,meteohub,2013-12-03 02:17:00,
2013-12-02 21:22:00,31.5,29.5,29.90,West,279,0.0,0.0,92,0.00,,,0.00,meteohub,2013-12-03 02:22:00,
2013-12-02 21:27:00,31.3,29.3,29.90,West,279,0.0,0.0,92,0.00,,,0.00,meteohub,2013-12-03 02:27:00,
2013-12-02 21:32:00,30.9,28.9,29.90,West,279,0.0,0.0,92,0.00,,,0.00,meteohub,2013-12-03 02:32:00,
2013-12-02 21:37:00,30.7,28.8,29.90,West,279,0.0,0.0,92,0.00,,,0.00,meteohub,2013-12-03 02:37:00,
2013-12-02 21:42:00,30.6,28.6,29.90,West,279,0.0,0.0,92,0.00,,,0.00,meteohub,2013-12-03 02:42:00,
2013-12-02 21:47:00,30.6,28.8,29.90,West,279,0.0,0.0,93,0.00,,,0.00,meteohub,2013-12-03 02:47:00,
2013-12-02 21:52:00,30.4,28.6,29.90,West,279,0.0,0.0,93,0.00,,,0.00,meteohub,2013-12-03 02:52:00,
2013-12-02 21:57:00,30.0,28.2,29.90,West,279,0.0,0.0,93,0.00,,,0.00,meteohub,2013-12-03 02:57:00,
2013-12-02 22:02:00,29.7,27.9,29.90,West,279,0.0,0.0,93,0.00,,,0.00,meteohub,2013-12-03 03:02:00,
2013-12-02 22:07:00,29.7,28.2,29.89,West,279,0.0,1.0,94,0.00,,,0.00,meteohub,2013-12-03 03:07:00,
2013-12-02 22:12:00,29.7,28.2,29.90,West,279,0.0,1.0,94,0.00,,,0.00,meteohub,2013-12-03 03:12:00,
2013-12-02 22:17:00,29.7,28.2,29.89,West,279,0.0,1.0,94,0.00,,,0.00,meteohub,2013-12-03 03:17:00,
2013-12-02 22:22:00,29.7,28.2,29.89,West,279,0.0,0.0,94,0.00,,,0.00,meteohub,2013-12-03 03:22:00,
2013-12-02 22:27:00,29.5,28.0,29.89,West,279,0.0,0.0,94,0.00,,,0.00,meteohub,2013-12-03 03:27:00,
2013-12-02 22:32:00,29.5,28.0,29.89,West,279,0.0,0.0,94,0.00,,,0.00,meteohub,2013-12-03 03:32:00,
2013-12-02 22:37:00,29.3,27.9,29.89,West,279,0.0,0.0,94,0.00,,,0.00,meteohub,2013-12-03 03:37:00,
2013-12-02 22:42:00,29.3,27.9,29.90,West,279,0.0,0.0,94,0.00,,,0.00,meteohub,2013-12-03 03:42:00,
2013-12-02 22:47:00,29.1,27.7,29.90,West,279,0.0,0.0,94,0.00,,,0.00,meteohub,2013-12-03 03:47:00,
2013-12-02 22:52:00,29.1,27.7,29.90,West,279,0.0,0.0,94,0.00,,,0.00,meteohub,2013-12-03 03:52:00,
2013-12-02 22:57:00,28.9,27.5,29.90,West,279,0.0,0.0,94,0.00,,,0.00,meteohub,2013-12-03 03:57:00,
2013-12-02 23:02:00,28.9,27.5,29.91,West,279,0.0,0.0,94,0.00,,,0.00,meteohub,2013-12-03 04:02:00,
2013-12-02 23:07:00,28.9,27.5,29.91,West,279,0.0,0.0,94,0.00,,,0.00,meteohub,2013-12-03 04:07:00,
2013-12-02 23:12:00,28.8,27.3,29.90,West,279,0.0,0.0,94,0.00,,,0.00,meteohub,2013-12-03 04:12:00,
2013-12-02 23:17:00,28.6,27.1,29.90,West,279,0.0,0.0,94,0.00,,,0.00,meteohub,2013-12-03 04:17:00,
2013-12-02 23:22:00,28.4,27.0,29.91,West,279,0.0,0.0,94,0.00,,,0.00,meteohub,2013-12-03 04:22:00,
2013-12-02 23:27:00,28.2,26.8,29.91,West,279,0.0,0.0,94,0.00,,,0.00,meteohub,2013-12-03 04:27:00,
2013-12-02 23:32:00,28.0,26.6,29.91,West,279,0.0,0.0,94,0.00,,,0.00,meteohub,2013-12-03 04:32:00,
2013-12-02 23:37:00,28.0,26.6,29.90,West,279,0.0,0.0,94,0.00,,,0.00,meteohub,2013-12-03 04:37:00,
2013-12-02 23:42:00,28.0,26.8,29.90,West,279,0.0,0.0,95,0.00,,,0.00,meteohub,2013-12-03 04:42:00,
2013-12-02 23:47:00,28.0,26.8,29.90,West,279,0.0,0.0,95,0.00,,,0.00,meteohub,2013-12-03 04:47:00,
2013-12-02 23:52:00,27.9,26.4,29.90,West,279,0.0,0.0,94,0.00,,,0.00,meteohub,2013-12-03 04:52:00,
2013-12-02 23:57:00,27.9,26.4,29.90,West,279,0.0,0.0,94,0.00,,,0.00,meteohub,2013-12-03 04:57:00,